KN6RO Weather Reports


time (UTC)temp
F
wind
direction
speed
knots
gust
knots
rain 1hr
in
rain 24hr
in
rain mn
in
humidity
%
barometer
mb
20260504151006 64 36 2.6 7.0 0.00 0.00 0.00 48 1018.8
20260504150516 63 58 1.7 7.0 0.00 0.00 0.00 48 1018.7
20260504141008 62 274 0.9 4.3 0.00 0.00 0.00 51 1018.8
20260504140504 62 57 2.6 4.3 0.00 0.00 0.00 48 1018.8
20260504130503 60 51 1.7 4.3 0.00 0.00 0.00 49 1018.6
20260504110507 53 257 0.0 0.9 0.00 0.00 0.00 54 1018.3
20260504100507 52 246 0.0 1.7 0.00 0.00 0.00 55 1017.9
20260504081526 53 244 0.9 2.6 0.00 0.00 0.00 57 1017.7
20260504081007 52 301 0.0 2.6 0.00 0.00 0.00 58 1017.7
20260504080506 52 37 0.9 2.6 0.00 0.00 0.00 59 1017.7
20260504050508 53 339 0.9 4.3 0.00 0.00 0.00 56 1018.8
20260504050024 52 292 0.9 2.6 0.00 0.00 0.00 58 1018.8
20260504045507 53 240 0.0 3.5 0.00 0.00 0.00 58 1018.7
20260504045007 52 54 1.7 3.5 0.00 0.00 0.00 58 1018.7
20260504044529 52 49 0.0 2.6 0.00 0.00 0.00 59 1018.7
20260504044011 51 236 0.0 0.9 0.00 0.00 0.00 60 1018.6
20260504043513 51 105 0.0 0.9 0.00 0.00 0.00 61 1018.6
20260504043028 51 240 0.0 0.9 0.00 0.00 0.00 63 1018.6
20260504042510 51 123 0.0 0.9 0.00 0.00 0.00 62 1018.7
20260504042008 51 250 0.0 1.7 0.00 0.00 0.00 63 1018.7
20260504041514 51 243 0.0 1.7 0.00 0.00 0.00 63 1018.7
20260504041008 51 243 0.0 0.9 0.00 0.00 0.00 62 1018.7
20260504040508 52 242 0.0 0.9 0.00 0.00 0.00 62 1018.7
20260504040018 52 242 0.0 1.7 0.00 0.00 0.00 61 1018.6
20260504035509 52 242 0.0 1.7 0.00 0.00 0.00 60 1018.6
20260504035007 52 98 0.0 1.7 0.00 0.00 0.00 60 1018.6
20260504034524 52 245 0.0 0.9 0.00 0.00 0.00 59 1018.6
20260504034010 52 245 0.0 1.7 0.00 0.00 0.00 60 1018.6
20260504033511 52 247 0.9 1.7 0.00 0.00 0.00 60 1018.7
20260504033029 53 241 0.0 1.7 0.00 0.00 0.00 59 1018.6
20260504032507 53 240 0.0 0.9 0.00 0.00 0.00 57 1018.6
20260504032011 54 231 0.0 1.7 0.00 0.00 0.00 58 1018.6
20260504031528 53 229 0.0 1.7 0.00 0.00 0.00 57 1018.7
20260504031010 53 246 0.9 1.7 0.00 0.00 0.00 58 1018.7
20260504030508 53 244 0.0 0.9 0.00 0.00 0.00 57 1018.8
20260504030015 53 242 0.0 0.9 0.00 0.00 0.00 56 1018.8
20260504025507 54 242 0.0 1.7 0.00 0.00 0.00 56 1018.7
20260504025007 54 237 0.9 1.7 0.00 0.00 0.00 57 1018.7
20260504024528 54 246 0.9 1.7 0.00 0.00 0.00 56 1018.7
20260504024007 54 245 0.9 1.7 0.00 0.00 0.00 55 1018.7
20260504023510 55 244 0.9 1.7 0.00 0.00 0.00 56 1018.7
20260504023026 55 246 0.0 0.9 0.00 0.00 0.00 54 1018.7
20260504022511 55 246 0.9 0.9 0.00 0.00 0.00 55 1018.6
20260504022010 55 248 0.0 1.7 0.00 0.00 0.00 54 1018.5
20260504021528 55 248 0.9 1.7 0.00 0.00 0.00 53 1018.5
20260504021010 55 245 0.9 1.7 0.00 0.00 0.00 54 1018.5
20260504020509 55 244 0.9 1.7 0.00 0.00 0.00 53 1018.5
20260504020028 55 245 0.9 1.7 0.00 0.00 0.00 52 1018.5
20260504015509 55 238 0.9 1.7 0.00 0.00 0.00 52 1018.4
20260504015013 55 249 0.9 0.9 0.00 0.00 0.00 52 1018.4
20260504014518 55 247 0.9 0.9 0.00 0.00 0.00 52 1018.4
20260504014008 56 250 0.9 0.9 0.00 0.00 0.00 50 1018.3
20260504013509 56 278 0.0 0.9 0.00 0.00 0.00 50 1018.3
20260504013033 55 246 0.9 1.7 0.00 0.00 0.00 51 1018.3
20260504012508 55 246 0.9 1.7 0.00 0.00 0.00 51 1018.2
20260504012015 55 245 0.9 1.7 0.00 0.00 0.00 52 1018.1
20260504011526 55 243 0.9 1.7 0.00 0.00 0.00 52 1018.1
20260504011013 55 248 0.9 0.9 0.00 0.00 0.00 51 1018.1
20260504010508 56 248 0.9 0.9 0.00 0.00 0.00 52 1018.0
20260504010027 56 245 0.9 0.9 0.00 0.00 0.00 50 1018.0
20260504005510 56 245 0.0 0.9 0.00 0.00 0.00 51 1018.0
20260504005010 56 245 0.0 1.7 0.00 0.00 0.00 49 1017.9
20260504004530 56 300 0.9 1.7 0.00 0.00 0.00 49 1017.9
20260504004009 56 245 0.0 1.7 0.00 0.00 0.00 52 1017.9
20260504003510 56 240 0.9 2.6 0.00 0.00 0.00 49 1017.9
20260504003034 57 245 0.9 2.6 0.00 0.00 0.00 52 1017.8
20260504002508 57 259 0.9 2.6 0.00 0.00 0.00 49 1017.8
20260504002007 57 308 0.9 2.6 0.00 0.00 0.00 50 1017.8
20260504001523 57 277 0.0 2.6 0.00 0.00 0.00 50 1017.8
20260504001009 57 237 0.9 1.7 0.00 0.00 0.00 51 1017.8
20260504000507 58 244 0.0 4.3 0.00 0.00 0.00 50 1017.9
20260504000028 57 302 1.7 4.3 0.00 0.00 0.00 51 1017.9
20260503235507 57 333 0.9 2.6 0.00 0.00 0.00 51 1017.8
20260503235007 57 263 0.9 2.6 0.00 0.00 0.00 51 1017.7
20260503234529 58 51 0.9 2.6 0.00 0.00 0.00 50 1017.7
20260503234011 58 177 0.0 3.5 0.00 0.00 0.00 51 1017.8
20260503233509 58 250 0.9 3.5 0.00 0.00 0.00 50 1017.8
20260503233036 58 65 0.0 3.5 0.00 0.00 0.00 50 1017.7
20260503232506 59 247 0.9 3.5 0.00 0.00 0.00 47 1017.8
20260503232008 59 49 0.0 3.5 0.00 0.00 0.00 47 1017.8
20260503231521 59 279 0.9 3.5 0.00 0.00 0.00 47 1017.8
20260503231007 59 53 0.0 4.3 0.00 0.00 0.00 47 1017.8
20260503230509 59 91 0.9 5.2 0.00 0.00 0.00 44 1017.8
20260503230027 59 327 0.0 5.2 0.00 0.00 0.00 44 1017.8
20260503225506 59 60 1.7 5.2 0.00 0.00 0.00 44 1017.9
20260503225009 60 239 0.9 5.2 0.00 0.00 0.00 46 1017.9
20260503224529 60 276 2.6 5.2 0.00 0.00 0.00 44 1017.9
20260503224015 60 252 0.9 5.2 0.00 0.00 0.00 44 1017.9
20260503223510 60 146 1.7 5.2 0.00 0.00 0.00 45 1017.9
20260503223030 60 51 0.9 4.3 0.00 0.00 0.00 42 1017.9
20260503222507 60 120 1.7 3.5 0.00 0.00 0.00 40 1017.9
20260503222008 60 11 1.7 5.2 0.00 0.00 0.00 39 1017.9
20260503221516 60 252 1.7 5.2 0.00 0.00 0.00 38 1017.9
20260503221008 61 18 0.9 3.5 0.00 0.00 0.00 42 1017.8
20260503220508 61 308 0.9 3.5 0.00 0.00 0.00 41 1017.8
20260503220024 61 322 0.9 1.7 0.00 0.00 0.00 41 1017.8
20260503215510 61 243 0.0 3.5 0.00 0.00 0.00 42 1017.7
20260503215010 61 213 1.7 3.5 0.00 0.00 0.00 44 1017.7
20260503214525 61 252 0.0 2.6 0.00 0.00 0.00 42 1017.8
20260503214007 61 47 0.0 3.5 0.00 0.00 0.00 39 1017.9
20260503213507 61 110 0.9 4.3 0.00 0.00 0.00 39 1017.9
20260503213027 62 238 1.7 4.3 0.00 0.00 0.00 41 1018.0
20260503212513 62 278 0.9 4.3 0.00 0.00 0.00 41 1018.0
20260503212009 61 43 2.6 6.1 0.00 0.00 0.00 42 1018.0
20260503211530 61 110 0.9 6.1 0.00 0.00 0.00 41 1018.1
20260503211007 61 49 1.7 2.6 0.00 0.00 0.00 42 1018.1
20260503210508 61 98 0.0 6.1 0.00 0.00 0.00 42 1018.0
20260503210017 61 248 0.9 6.1 0.00 0.00 0.00 42 1018.1
20260503205506 61 48 0.0 6.1 0.00 0.00 0.00 41 1018.2
20260503205008 61 323 2.6 6.1 0.00 0.00 0.00 39 1018.2
20260503204524 61 117 0.9 3.5 0.00 0.00 0.00 39 1018.3
20260503204007 61 57 0.9 3.5 0.00 0.00 0.00 39 1018.3
20260503203510 61 114 0.9 6.1 0.00 0.00 0.00 37 1018.4
20260503203031 61 360 2.6 6.1 0.00 0.00 0.00 37 1018.5
20260503202511 61 142 0.9 5.2 0.00 0.00 0.00 37 1018.5
20260503202007 61 86 1.7 3.5 0.00 0.00 0.00 38 1018.7
20260503201514 61 354 1.7 4.3 0.00 0.00 0.00 37 1018.7
20260503201004 61 243 1.7 6.1 0.00 0.00 0.00 38 1018.7
20260503200508 60 356 1.7 6.1 0.00 0.00 0.00 36 1018.8
20260503200016 61 49 1.7 7.0 0.00 0.00 0.00 39 1018.8
20260503195510 61 37 2.6 7.0 0.00 0.00 0.00 37 1019.0
20260503195009 61 253 0.9 7.0 0.00 0.00 0.00 40 1019.0
20260503194519 61 8 0.9 7.0 0.00 0.00 0.00 43 1019.3
20260503194004 61 35 0.9 7.0 0.00 0.00 0.00 44 1019.2
20260503193507 61 261 1.7 7.0 0.00 0.00 0.00 42 1019.4
20260503193004 62 127 1.7 4.3 0.00 0.00 0.00 43 1019.3
20260503192504 61 23 0.9 4.3 0.00 0.00 0.00 43 1019.4
20260503192004 61 132 0.9 7.0 0.00 0.00 0.00 42 1019.5
20260503191508 61 351 1.7 7.0 0.00 0.00 0.00 42 1019.6
20260503191004 62 32 0.9 6.1 0.00 0.00 0.00 43 1019.6
20260503190504 62 54 0.0 6.1 0.00 0.00 0.00 43 1019.7
20260503190010 62 130 2.6 5.2 0.00 0.00 0.00 41 1019.7
20260503185505 62 60 0.9 7.8 0.00 0.00 0.00 44 1019.8
20260503185007 63 60 1.7 7.8 0.00 0.00 0.00 44 1019.8
20260503184519 64 293 1.7 4.3 0.00 0.00 0.00 41 1019.9
20260503184007 64 47 0.9 2.6 0.00 0.00 0.00 43 1019.8
20260503183509 64 80 0.9 3.5 0.00 0.00 0.00 47 1019.8
20260503183024 63 42 1.7 4.3 0.00 0.00 0.00 43 1019.8
20260503182507 63 101 1.7 4.3 0.00 0.00 0.00 42 1019.9
20260503182005 63 117 1.7 4.3 0.00 0.00 0.00 44 1019.9
20260503181505 63 66 0.9 3.5 0.00 0.00 0.00 48 1019.9
20260503181005 62 38 0.0 2.6 0.00 0.00 0.00 45 1020.0
20260503180504 62 43 0.9 2.6 0.00 0.00 0.00 45 1020.0
20260503180009 61 145 0.9 5.2 0.00 0.00 0.00 43 1020.1
20260503175504 62 301 2.6 5.2 0.00 0.00 0.00 41 1020.1
20260503175004 62 68 0.9 6.1 0.00 0.00 0.00 44 1020.1
20260503174519 62 36 2.6 6.1 0.00 0.00 0.00 41 1020.0
20260503174004 61 32 0.9 5.2 0.00 0.00 0.00 43 1020.1
20260503173505 61 100 1.7 6.1 0.00 0.00 0.00 40 1020.2
20260503173019 61 330 2.6 6.1 0.00 0.00 0.00 40 1020.2
20260503172512 62 33 3.5 5.2 0.00 0.00 0.00 40 1020.2
20260503172010 62 102 0.9 3.5 0.00 0.00 0.00 43 1020.3
20260503171521 62 15 0.9 5.2 0.00 0.00 0.00 42 1020.4
20260503171009 62 76 2.6 5.2 0.00 0.00 0.00 41 1020.5
20260503170505 63 53 0.9 3.5 0.00 0.00 0.00 46 1020.5